Home > Weather > Helena > Past weeks

Flag for U.S.A. Weather for the Past 2 Weeks in Helena, Montana, U.S.A.

Now
42 °F

Passing clouds.


Feels Like: 37 °F
Forecast: 36 / 47 °F
Wind: 8 mph from Southwest

Location: Helena Regional Airport

Current Time: Feb 13, 2016 at 7:21:26 PM

Latest Report: Feb 13, 2016 at 5:53 PM


Visibility: 10 mi

Pressure: 30.17 "Hg (25.92 "Hg at 1239m altitude)

Humidity: 41%

Dew point: 20 °F

Location of HelenaLocation

Historic Weather in Helena — Graph

°F

Helena Temperature Yesterday

Maximum temperature yesterday: 51 °F (at 3:53 PM)
Minimum temperature yesterday: 34 °F (at 6:53 AM)
Average temperature yesterday: 40 °F

High & Low Weather Summary for the Past Weeks

 TemperatureHumidityPressure
High55 °F (Feb 11, 1:53 PM)92% (Jan 29, 6:53 PM)30.70 "Hg (Jan 29, 6:53 PM)
Low11 °F (Feb 3, 5:53 AM)31% (Feb 11, 1:53 PM)29.65 "Hg (Jan 30, 12:53 AM)
Average33 °F65%30.25 "Hg
* Reported Jan 29 5:53 PM — Feb 13 5:53 PM, Helena, Weather by CustomWeather, © 2016

Note: Actual official high and low records may vary slightly from our data, if they occured in-between our weather recording intervals... More about our weather records

Advertising

Helena Weather History for the Previous 24 Hours

 ConditionsComfort  
Time TempWeatherWind HumidityBarometerVisibility
5:53 PM
Sat, Feb 13
42 °FPassing clouds.8 mph41%30.17 "Hg10 mi
4:53 PM44 °FOvercast.10 mph41%30.15 "Hg10 mi
3:53 PM44 °FOvercast.17 mph41%30.18 "Hg10 mi
2:53 PM46 °FScattered clouds.22 mph37%30.16 "Hg10 mi
1:53 PM44 °FBroken clouds.15 mph47%30.15 "Hg10 mi
12:53 PM44 °FPassing clouds.28 mph43%30.13 "Hg10 mi
11:53 AM46 °FMostly cloudy.16 mph44%30.12 "Hg10 mi
10:53 AM45 °FPassing clouds.20 mph45%30.10 "Hg10 mi
9:53 AM41 °FSunny.25 mph53%30.06 "Hg10 mi
8:53 AM41 °FSunny.8 mph58%30.11 "Hg10 mi
7:53 AM40 °FOvercast.16 mph65%30.07 "Hg10 mi
6:53 AM41 °FOvercast.21 mph65%30.05 "Hg10 mi
5:53 AM40 °FPassing clouds.8 mph80%30.04 "Hg10 mi
4:53 AM41 °FLight rain. Passing clouds.10 mph80%30.03 "Hg10 mi
3:53 AM32 °FPassing clouds.5 mph92%30.00 "Hg10 mi
2:53 AM32 °FClear.3 mph88%30.03 "Hg10 mi
1:53 AM34 °FClear.5 mph85%30.06 "Hg10 mi
12:53 AM33 °FClear.No wind88%30.08 "Hg10 mi
11:53 PM
Fri, Feb 12
36 °FPassing clouds.No wind82%30.11 "Hg10 mi
10:53 PM37 °FClear.5 mph82%30.12 "Hg10 mi
9:53 PM36 °FPassing clouds.No wind85%30.14 "Hg10 mi
8:53 PM36 °FClear.No wind85%30.17 "Hg10 mi
7:53 PM39 °FClear.No wind82%30.18 "Hg10 mi
Weather by CustomWeather, © 2016

See weather overviewHow to use our weather pages